When you browse on this site, cookies collect data to enhance your experience and personalize the content and advertising you see.
Visit our Privacy Policy to learn more. By continuing to use the site, you agree to this use of cookies and data.
EN

Hourly Weather Cochabamba

Today, 6 July, Monday

Time Temperature Precipitation Wind Pressure Humidity
00:00 +12°C° 0 mm 1 mps 553 mmHg 77%
01:00 +12°C° 0 mm 2 mps 553 mmHg 78%
02:00 +10°C° 0 mm 2 mps 552 mmHg 78%
03:00 +10°C° 0 mm 2 mps 552 mmHg 78%
04:00 +10°C° 0 mm 2 mps 552 mmHg 78%
05:00 +9°C° 0 mm 2 mps 552 mmHg 78%
06:00 +10°C° 0 mm 2 mps 553 mmHg 75%
07:00 +12°C° 0 mm 2 mps 553 mmHg 72%
08:00 +13°C° 0 mm 2 mps 554 mmHg 69%
09:00 +15°C° 0 mm 2 mps 555 mmHg 62%
10:00 +16°C° 0 mm 2 mps 556 mmHg 56%
11:00 +19°C° 0 mm 1 mps 557 mmHg 49%
12:00 +19°C° 0 mm 2 mps 556 mmHg 48%
13:00 +20°C° 0 mm 2 mps 556 mmHg 48%
14:00 +21°C° 0 mm 3 mps 556 mmHg 47%
15:00 +20°C° 0.1 mm 3 mps 555 mmHg 50%
16:00 +20°C° 0.1 mm 3 mps 555 mmHg 53%
17:00 +19°C° 0.1 mm 3 mps 554 mmHg 57%
18:00 +17°C° 0 mm 3 mps 554 mmHg 64%
19:00 +16°C° 0 mm 3 mps 553 mmHg 71%
20:00 +13°C° 0 mm 3 mps 553 mmHg 78%
21:00 +14°C° 0 mm 2 mps 553 mmHg 78%
22:00 +13°C° 0 mm 2 mps 553 mmHg 79%
23:00 +13°C° 0 mm 2 mps 553 mmHg 79%

Tomorrow, 7 July, Tuesday

Time Temperature Precipitation Wind Pressure Humidity
00:00 +13°C° 0 mm 2 mps 553 mmHg 80%
01:00 +12°C° 0 mm 2 mps 552 mmHg 81%
02:00 +12°C° 0 mm 2 mps 552 mmHg 81%
03:00 +12°C° 0 mm 2 mps 552 mmHg 82%
04:00 +10°C° 0 mm 2 mps 552 mmHg 83%
05:00 +10°C° 0 mm 2 mps 551 mmHg 84%
06:00 +12°C° 0 mm 2 mps 552 mmHg 81%
07:00 +13°C° 0 mm 1 mps 553 mmHg 78%
08:00 +14°C° 0 mm 1 mps 554 mmHg 75%
09:00 +15°C° 0 mm 1 mps 554 mmHg 67%
10:00 +18°C° 0 mm 1 mps 555 mmHg 60%
11:00 +20°C° 0 mm 1 mps 556 mmHg 53%
12:00 +20°C° 0 mm 2 mps 555 mmHg 49%
13:00 +21°C° 0 mm 3 mps 555 mmHg 45%
14:00 +22°C° 0 mm 3 mps 555 mmHg 42%
15:00 +21°C° 0.1 mm 3 mps 555 mmHg 44%
16:00 +21°C° 0.1 mm 3 mps 554 mmHg 46%
17:00 +20°C° 0.1 mm 3 mps 554 mmHg 48%
18:00 +18°C° 0 mm 3 mps 553 mmHg 56%
19:00 +16°C° 0 mm 3 mps 553 mmHg 63%
20:00 +15°C° 0 mm 2 mps 553 mmHg 71%
21:00 +14°C° 0 mm 2 mps 553 mmHg 71%
22:00 +13°C° 0 mm 1 mps 553 mmHg 71%
23:00 +12°C° 0 mm 1 mps 553 mmHg 71%

Day after tomorrow, 8 July, Wednesday

Time Temperature Precipitation Wind Pressure Humidity
00:00 +12°C° 0 mm 1 mps 552 mmHg 70%
01:00 +11°C° 0 mm 1 mps 552 mmHg 69%
02:00 +11°C° 0 mm 1 mps 552 mmHg 68%
03:00 +10°C° 0 mm 1 mps 551 mmHg 67%
04:00 +8°C° 0 mm 0 mps 551 mmHg 66%
05:00 +8°C° 0 mm 0 mps 550 mmHg 65%
06:00 +9°C° 0 mm 0 mps 552 mmHg 60%
07:00 +10°C° 0 mm 0 mps 553 mmHg 55%
08:00 +12°C° 0 mm 0 mps 555 mmHg 50%
09:00 +15°C° 0 mm 1 mps 556 mmHg 40%
10:00 +18°C° 0 mm 1 mps 556 mmHg 30%
11:00 +20°C° 0 mm 1 mps 557 mmHg 20%
12:00 +20°C° 0 mm 2 mps 557 mmHg 17%
13:00 +21°C° 0 mm 2 mps 557 mmHg 15%
14:00 +23°C° 0 mm 2 mps 557 mmHg 12%
15:00 +22°C° 0 mm 3 mps 557 mmHg 13%
16:00 +21°C° 0 mm 4 mps 557 mmHg 13%
17:00 +21°C° 0 mm 4 mps 556 mmHg 14%
18:00 +18°C° 0 mm 4 mps 555 mmHg 21%
19:00 +14°C° 0 mm 3 mps 554 mmHg 27%
20:00 +12°C° 0 mm 2 mps 553 mmHg 33%
21:00 +10°C° 0 mm 2 mps 553 mmHg 34%
22:00 +10°C° 0 mm 1 mps 553 mmHg 35%
23:00 +9°C° 0 mm 1 mps 553 mmHg 36%

9 July, Thursday

Time Temperature Precipitation Wind Pressure Humidity
00:00 +9°C° 0 mm 1 mps 552 mmHg 39%
01:00 +8°C° 0 mm 1 mps 552 mmHg 42%
02:00 +8°C° 0 mm 1 mps 552 mmHg 45%
03:00 +7°C° 0 mm 1 mps 551 mmHg 46%
04:00 +7°C° 0 mm 1 mps 551 mmHg 46%
05:00 +6°C° 0 mm 0 mps 551 mmHg 46%
06:00 +7°C° 0 mm 0 mps 552 mmHg 43%
07:00 +9°C° 0 mm 0 mps 553 mmHg 40%
08:00 +10°C° 0 mm 0 mps 555 mmHg 37%
09:00 +13°C° 0 mm 0 mps 556 mmHg 31%
10:00 +16°C° 0 mm 1 mps 557 mmHg 26%
11:00 +19°C° 0 mm 1 mps 558 mmHg 20%
12:00 +20°C° 0 mm 1 mps 558 mmHg 21%
13:00 +21°C° 0 mm 1 mps 558 mmHg 21%
14:00 +22°C° 0 mm 1 mps 558 mmHg 21%
15:00 +20°C° 0 mm 2 mps 557 mmHg 27%
16:00 +19°C° 0 mm 2 mps 556 mmHg 33%
17:00 +19°C° 0 mm 2 mps 556 mmHg 38%
18:00 +17°C° 0 mm 2 mps 555 mmHg 47%
19:00 +15°C° 0 mm 1 mps 555 mmHg 56%
20:00 +14°C° 0 mm 1 mps 554 mmHg 65%
21:00 +13°C° 0 mm 1 mps 554 mmHg 65%
22:00 +13°C° 0 mm 1 mps 554 mmHg 65%
23:00 +12°C° 0 mm 1 mps 554 mmHg 65%

10 July, Friday

Time Temperature Precipitation Wind Pressure Humidity
00:00 +11°C° 0 mm 0 mps 554 mmHg 65%
01:00 +11°C° 0 mm 0 mps 553 mmHg 65%
02:00 +10°C° 0 mm 0 mps 553 mmHg 66%
03:00 +11°C° 0 mm 1 mps 553 mmHg 65%
04:00 +11°C° 0 mm 1 mps 552 mmHg 65%
05:00 +10°C° 0 mm 1 mps 552 mmHg 65%
06:00 +11°C° 0 mm 1 mps 553 mmHg 60%
07:00 +12°C° 0 mm 1 mps 554 mmHg 54%
08:00 +13°C° 0 mm 1 mps 555 mmHg 49%
09:00 +15°C° 0 mm 1 mps 556 mmHg 43%
10:00 +18°C° 0 mm 1 mps 557 mmHg 36%
11:00 +20°C° 0 mm 1 mps 558 mmHg 30%
12:00 +21°C° 0 mm 1 mps 558 mmHg 30%
13:00 +20°C° 0 mm 2 mps 557 mmHg 30%
14:00 +21°C° 0 mm 2 mps 557 mmHg 30%
15:00 +21°C° 0 mm 2 mps 556 mmHg 33%
16:00 +20°C° 0 mm 2 mps 556 mmHg 37%
17:00 +20°C° 0 mm 2 mps 555 mmHg 40%
18:00 +18°C° 0 mm 2 mps 555 mmHg 49%
19:00 +16°C° 0 mm 2 mps 554 mmHg 57%
20:00 +14°C° 0 mm 2 mps 553 mmHg 65%
21:00 +13°C° 0 mm 1 mps 553 mmHg 64%
22:00 +13°C° 0 mm 1 mps 553 mmHg 62%
23:00 +12°C° 0 mm 1 mps 553 mmHg 60%

11 July, Saturday

Time Temperature Precipitation Wind Pressure Humidity
00:00 +11°C° 0 mm 0 mps 553 mmHg 61%
01:00 +10°C° 0 mm 0 mps 552 mmHg 62%
02:00 +10°C° 0 mm 0 mps 552 mmHg 63%
03:00 +10°C° 0 mm 0 mps 551 mmHg 62%
04:00 +9°C° 0 mm 0 mps 551 mmHg 62%
05:00 +10°C° 0 mm 1 mps 551 mmHg 61%
06:00 +12°C° 0 mm 1 mps 552 mmHg 56%
07:00 +13°C° 0 mm 1 mps 553 mmHg 51%
08:00 +14°C° 0 mm 1 mps 555 mmHg 46%
09:00 +18°C° 0 mm 1 mps 555 mmHg 40%
10:00 +20°C° 0 mm 1 mps 556 mmHg 33%
11:00 +22°C° 0 mm 1 mps 557 mmHg 27%
12:00 +23°C° 0 mm 2 mps 557 mmHg 27%
13:00 +24°C° 0 mm 3 mps 557 mmHg 27%
14:00 +25°C° 0 mm 3 mps 557 mmHg 28%
15:00 +24°C° 0.1 mm 3 mps 556 mmHg 31%
16:00 +22°C° 0.1 mm 3 mps 555 mmHg 35%
17:00 +22°C° 0.1 mm 3 mps 555 mmHg 39%
18:00 +20°C° 0 mm 3 mps 554 mmHg 46%
19:00 +17°C° 0 mm 2 mps 554 mmHg 53%
20:00 +15°C° 0 mm 2 mps 553 mmHg 60%
21:00 +14°C° 0 mm 2 mps 553 mmHg 60%
22:00 +14°C° 0 mm 1 mps 553 mmHg 61%
23:00 +13°C° 0 mm 1 mps 552 mmHg 61%
Show more